Topeka, KS

8:15 AM CST on February 23, 2017 (GMT -0600)
Billard Municipal

Weather History for KTOP - October, 2014

Change the Weather History Date:

Sunday, October 5, 2014

  Actual Average Record
Temperature  
Mean Temperature 60 °F 60 °F  
Max Temperature 78 °F 72 °F 96 °F (1963)
Min Temperature 41 °F 48 °F 31 °F (1964)
Degree Days  
Heating Degree Days 5 6  
Month to date heating degree days 35 29  
Since 1 July heating degree days 84 96  
Cooling Degree Days 0 2  
Month to date cooling degree days 10 10  
Year to date cooling degree days 1593 1403  
Growing Degree Days 10 (Base 50)    
Moisture  
Dew Point 46 °F    
Average Humidity 62    
Maximum Humidity 92    
Minimum Humidity 31    
Precipitation  
Precipitation 0.01 in 0.12 in 1.55 in (2000)
Month to date precipitation 1.51 0.60  
Year to date precipitation 25.49 30.83  
Snow  
Snow 0.00 in 0.00 in 0.00 in ()
Month to date snowfall 0.0 0.0  
Year to date snowfall 23.1 11.3  
Since 1 July snowfall T 0.0  
Snow Depth 0.00 in    
Sea Level Pressure  
Sea Level Pressure 29.79 in    
Wind  
Wind Speed 6 mph (WNW)    
Max Wind Speed 25 mph    
Max Gust Speed 40 mph    
Visibility 10 miles    
Events Rain , Thunderstorm    
T = Trace of Precipitation, MM = Missing Value Source: NWS Daily Summary

Daily Weather History Graph

Daily Weather History Graph

Search for Another Location

Airport or City:

Trip Planner

Search our weather history database for the weather conditions in past years. The results will help you decide how hot, cold, wet, or windy it might be!

Date:

Astronomy

Oct. 05, 2014 Rise Set
Actual Time 7:22 AM CDT 6:58 PM CDT
Civil Twilight 6:55 AM CDT 7:25 PM CDT
Nautical Twilight 6:24 AM CDT 7:56 PM CDT
Astronomical Twilight 5:53 AM CDT 8:27 PM CDT
Moon 5:15 PM CDT (10/5) 4:01 AM CDT (10/5)
Length of Visible Light 12h 29m
Length of Day
11h 36m
Waxing Gibbous, 89% of the Moon is Illuminated
Oct 5
Waxing Gibbous
Oct 8
Full
Oct 15
Last Quarter
Oct 23
New
Oct 30
First Quarter

Hourly Weather History & Observations

Time (CDT) Temp. Windchill Dew Point Humidity Pressure Visibility Wind Dir Wind Speed Gust Speed Precip Events Conditions
12:53 AM 48.9 °F - 43.0 °F 80% 29.84 in 10.0 mi Calm Calm - N/A   Clear
1:53 AM 48.9 °F - 45.0 °F 86% 29.83 in 10.0 mi Calm Calm - N/A   Clear
2:53 AM 46.9 °F - 42.1 °F 83% 29.81 in 10.0 mi NW 3.5 mph - N/A   Clear
3:53 AM 45.0 °F 43.5 °F 42.1 °F 90% 29.80 in 10.0 mi SE 3.5 mph - N/A   Clear
4:53 AM 45.0 °F - 42.1 °F 90% 29.77 in 10.0 mi Calm Calm - N/A   Clear
5:53 AM 42.1 °F - 39.9 °F 92% 29.78 in 10.0 mi Calm Calm - N/A   Clear
6:53 AM 42.1 °F - 39.9 °F 92% 29.78 in 10.0 mi Calm Calm - N/A   Clear
7:53 AM 46.9 °F - 42.1 °F 83% 29.80 in 10.0 mi WNW 6.9 mph - N/A   Clear
8:53 AM 51.1 °F - 44.1 °F 77% 29.81 in 10.0 mi West 8.1 mph - N/A   Mostly Cloudy
9:53 AM 59.0 °F - 46.0 °F 62% 29.81 in 10.0 mi West 5.8 mph - N/A   Clear
10:53 AM 66.9 °F - 46.9 °F 49% 29.81 in 10.0 mi West 9.2 mph - N/A   Clear
11:53 AM 72.0 °F - 48.0 °F 43% 29.79 in 10.0 mi WSW 8.1 mph - N/A   Clear
12:53 PM 75.9 °F - 44.1 °F 32% 29.78 in 10.0 mi WNW 18.4 mph 27.6 mph N/A   Clear
1:53 PM 77.0 °F - 45.0 °F 32% 29.76 in 10.0 mi WNW 16.1 mph 27.6 mph N/A   Clear
2:53 PM 75.9 °F - 44.1 °F 32% 29.75 in 10.0 mi WNW 16.1 mph 31.1 mph N/A   Partly Cloudy
3:53 PM 75.9 °F - 44.1 °F 32% 29.74 in 10.0 mi WNW 17.3 mph 25.3 mph N/A   Clear
4:53 PM 75.0 °F - 43.0 °F 32% 29.75 in 10.0 mi WNW 15.0 mph 21.9 mph N/A   Clear
5:53 PM 73.0 °F - 43.0 °F 34% 29.75 in 10.0 mi West 5.8 mph - N/A   Clear
6:53 PM 68.0 °F - 45.0 °F 43% 29.74 in 10.0 mi WSW 3.5 mph - N/A   Clear
7:53 PM 60.1 °F - 50.0 °F 69% 29.75 in 10.0 mi NW 3.5 mph - N/A   Mostly Cloudy
8:53 PM 59.0 °F - 48.9 °F 69% 29.77 in 10.0 mi SSW 4.6 mph - N/A   Scattered Clouds
9:53 PM 57.0 °F - 53.1 °F 87% 29.77 in 10.0 mi Calm Calm - N/A   Mostly Cloudy
10:07 PM 59.0 °F - 52.0 °F 78% 29.83 in 10.0 mi WNW 16.1 mph 20.7 mph 0.00 in Rain , Thunderstorm Light Rain
10:15 PM 60.1 °F - 52.0 °F 75% 29.83 in 9.0 mi NW 17.3 mph 40.3 mph 0.01 in Rain , Thunderstorm Light Thunderstorms and Rain
10:29 PM 60.1 °F - 53.1 °F 78% 29.82 in 10.0 mi West 6.9 mph - 0.01 in Rain Light Rain
10:53 PM 59.0 °F - 54.0 °F 83% 29.78 in 10.0 mi Calm Calm - 0.01 in   Overcast
11:53 PM 57.0 °F - 53.1 °F 87% 29.79 in 10.0 mi Calm Calm - N/A   Partly Cloudy